Torna al catalogo

STARLINK-37852

AttivoComunicazioniSSO
NORAD 69662·PAYLOAD·🇺🇸 United States

Lanciato Jun 21, 2026 da Vandenberg Space Force Base

Loading…

Prossimi Passaggi (prossime 24 ore)

TLE

AggiornatoSource: CelesTrak SupGP

Epoca: Sep 14, 2026, 22:40 UTC

1 69662C 26143P   26257.94493056  .00034257  00000+0  10637-2 0  2573
2 69662  97.2840 301.1888 0000945  93.6523 120.9230 15.33414151    12

Traccia STARLINK-37852 in tempo reale con AllMySat

Download on the App Store